Regional Weather Roundup
Issued by NWS Boston, MA

Home | Current Version | Previous Version | Text Only | Print | Product List | Glossary On
Versions: 1 2 3 4 5 6 7 8 9 10 11 12 13 14 15 16 17 18 19 20 21 22 23 24 25 26 27 28
000
ASUS41 KBOX 220710
RWRBOX

REGIONAL WEATHER ROUNDUP
NATIONAL WEATHER SERVICE TAUNTON MA
300 AM EDT SUN OCT 22 2017

NOTE:  "FAIR" INDICATES FEW OR NO CLOUDS BELOW 12,000 FEET WITH NO
SIGNIFICANT WEATHER AND/OR OBSTRUCTIONS TO VISIBILITY.

MAZALL-220800-
EASTERN MASSACHUSETTS

CITY           SKY/WX    TMP DP  RH WIND       PRES   REMARKS
BOSTON         PTCLDY    57  47  69 CALM      30.33S
BEVERLY        PTCLDY    52  45  77 CALM      30.32S
LAWRENCE       PTCLDY    54  46  74 CALM      30.35R
BEDFORD        CLEAR     47  43  86 CALM      30.32S
BLUE HILL        N/A     60  41  49 W12       30.33S
NORWOOD        CLEAR     45  43  93 CALM      30.33S
MARSHFIELD     PTCLDY    55  50  82 W5        30.33R
PLYMOUTH       CLEAR     50  46  86 CALM      30.34S
TAUNTON        CLEAR     43  41  93 CALM      30.33F FOG
NEW BEDFORD    CLEAR     47  46  97 CALM      30.33S
$$

MAZALL-220800-
CAPE COD AND THE ISLANDS

CITY           SKY/WX    TMP DP  RH WIND       PRES   REMARKS
FALMOUTH       FOG       54  54 100 CALM      30.35S VSB 1/2
HYANNIS        CLOUDY    57  56  96 SW5       30.33S
CHATHAM        PTCLDY    60  59  96 SW6       30.35S
PROVINCETOWN   PTCLDY    57  55  93 S6        30.33F
NANTUCKET      PTCLDY    59  58  96 SW8       30.35S
MARTHAS VNYRD  CLEAR     57  56  96 SW6       30.34F
$$

MAZALL-220800-
CENTRAL AND WESTERN MASSACHUSETTS

CITY           SKY/WX    TMP DP  RH WIND       PRES   REMARKS
WORCESTER      CLOUDY    58  39  49 W12       30.35S
FITCHBURG      CLOUDY    50  47  89 CALM      30.34F
ORANGE         PTCLDY    41  41 100 CALM      30.36S FOG
SPRINGFIELD    PTCLDY    42  42  97 CALM      30.34S FOG
WESTFIELD      LGT RAIN  43  42  97 CALM      30.35S
NORTH ADAMS    CLOUDY    40  37  89 CALM      30.38R
PITTSFIELD     CLOUDY    43  40  89 CALM      30.36S
$$

RIZALL-220800-
RHODE ISLAND

CITY           SKY/WX    TMP DP  RH WIND       PRES   REMARKS
PROVIDENCE     CLEAR     51  48  89 SW6       30.34F
NEWPORT        CLEAR     57  51  80 SW5       30.33F
BLOCK ISLAND   CLEAR     56  54  93 SW7       30.35F
SMITHFIELD     CLEAR     51  46  83 CALM      30.34S
WESTERLY       CLEAR     47  45  93 CALM      30.35F
$$

CTZALL-220800-
CONNECTICUT

CITY           SKY/WX    TMP DP  RH WIND       PRES   REMARKS
BRADLEY INTL   PTCLDY    44  42  93 CALM      30.35S
HARTFORD       FOG       47  45  93 CALM      30.35S VSB 1/4
BRIDGEPORT     CLEAR     52  48  86 N3        30.35S
DANBURY        CLEAR     42  40  92 CALM      30.37S
GROTON         PTCLDY    48  47  96 CALM      30.34F
NEW HAVEN      PTCLDY    46  44  93 CALM      30.35F
CHESTER        FAIR      57  45  62 VRB3      30.35S
MERIDEN        FOG       44  43  96 CALM      30.35S VSB 1
WILLIMANTIC    CLEAR     43  41  93 CALM      30.36S
OXFORD         CLEAR     50  44  80 CALM      30.36S
$$

MEZ002-015-021-024-NHZ003-005-008-011-012-014-VTZ005-008-220800-
NORTHERN NEW ENGLAND

CITY           SKY/WX    TMP DP  RH WIND       PRES   REMARKS
PORTLAND ME    PTCLDY    49  47  93 VRB3      30.33R
BANGOR ME      CLOUDY    49  42  77 CALM      30.36R
CONCORD NH     CLOUDY    45  43  93 CALM      30.35R
MANCHESTER NH  PTCLDY    52  48  86 CALM      30.32S
NASHUA NH      PTCLDY    47  46  97 CALM      30.34S
PORTSMOUTH NH  PTCLDY    52  48  86 W5        30.31R
JAFFREY NH     CLOUDY    45  45 100 S3        30.36S
KEENE NH       PTCLDY    40  39  97 CALM      30.37S
BURLINGTON VT  MOCLDY    50  46  86 CALM      30.33R
MT. WASHINGTON CLOUDY    48  23  37 NW8         N/A
$$

NYZ052-076-220800-
EASTERN NEW YORK

CITY           SKY/WX    TMP DP  RH WIND       PRES   REMARKS
ALBANY         MOCLDY    45  43  93 CALM      30.36R
NEW YORK CITY  PTCLDY    63  47  55 CALM      30.34F
$$

ANZALL-220800-
MARINE OBSERVATIONS

STATION/POSITION TIME  TEMP    WIND        PRES    VSBY  WAVE
                       AIR SEA DIR/SP/G                  HT/PER
                 (UTC) (F)     (DEG/KT/KT) (MB)    (MI)  (FT/S)
BOSTON BUOY      0650   60 59  250/  6/  8 1026.3R         1
BUZZARDS BAY     0600   62     220/ 10/ 11 1027.9S
NANTUCKET SOUND  0650   62 62  240/ 12/ 14 1027.2F         1/ 3
MASS BAY-STELLWA 0604   60 59  240/  6/  8 1025.6R         1/ 3
ISLE OF SHOALS   0600   62     250/  7/  7 1026.2R
S OF BLOCK IS    NOT AVBL
$$

......................KEY.........................
  SKY/WX - SKY CONDITION/PRESENT WEATHER
  TMP    - TEMPERATURE IN FAHRENHEIT
  DWPT   - DEWPOINT IN FAHRENHEIT
  RH     - RELATIVE HUMIDITY IN PERCENT
  WIND   - DIRECTION AND SPEED IN MPH
  PRES   - MEAN SEA LEVEL PRESSURE IN INCHES OF HG
  WCI    - WIND CHILL INDEX
  VSB    - VISIBILITY IN MILES
  HX     - HEAT INDEX
  TC     - TEMPERATURE IN CELSIUS
  VRB    - VARIABLE WIND DIRECTION
  N/A    - NOT AVAILABLE




USA.gov is the U.S. government's official web portal to all federal, state and local government web resources and services.